Погода в Сисакете

Таиланд     15°06′43″N   104°19′48″E
темп.,
°C
ветер,
м/с
пор.,
м/с
влажн.,
%
обл.,
%
осадки,
мм/ч
давл.,
гПа
погр.,
м
11 мая, вт
вт1101:00+29юз366498 0.0 1006200
04:00+28юз376869 0.0 1006253
07:00+29ююз346742 0.0 1008255
10:00+34ююз334544 0.0 10091624
13:00+37ююз3335100 0.1 10052755
16:00+37ююз123546 0.3 10031634
19:00+32ююз365211 0.3 1004165
22:00+32юз495144 0.0 1006295
12 мая, ср
ср1201:00+29зюз376116 0.0 1005224
04:00+28юз386915 0.0 1005262
07:00+29ююз356455 0.0 1008280
10:00+35ююз44435 0.0 10081695
13:00+38ююз443395 0.0 10052816
16:00+39ю442949 0.0 10022727
19:00+35з114288 0.0 100335
22:00+33ююв114996 0.7 100536
13 мая, чт
чт1301:00+31ююз35576 0.7 1005174
04:00+29юз36658 0.0 1004210
07:00+31ююз356017 0.0 1006346
10:00+33ю3350100 0.0 10071376
13:00+36ю224051 0.0 10052146
16:00+34ююз654647 0.0 1002703
19:00+33ю345016 0.0 1003100
22:00+31юз355638 0.2 1005132
14 мая, пт
пт1401:00+29ююз37645 0.3 1004176
04:00+28ююз37695 0.0 1004190
07:00+29ю35679 0.4 1006270
10:00+35ююз334510 0.0 10061682
13:00+35ююв224187 0.3 10041821
16:00+36ююз323975 0.1 10021580
19:00+33ююв355057 0.2 1003132
22:00+32ю355553 0.3 1004167
15 мая, сб
сб1501:00+29юз486598 0.6 1004241
04:00+29юз376899 0.1 1004235
07:00+29ююв356986 0.4 1006262
10:00+34ююз335054 0.0 10061325
13:00+36зюз334492 0.4 10041729
16:00+32всв235979 0.4 1002444
19:00+31св116169 1.5 100432
22:00+30ю236546 1.3 100546